,,,PA_Meas_PMT16A,,PR_Meas_QMR101_102,,RH_Meas_QMH101,,SR_Meas_QMS101,,TA_Meas_QMH101,,GenWind,,GenWind,
date,time,status,PA,status,PR,status,RH,status,SR,status,TA,status,DirAvg,status,SpdAvg,
2009-02-23, 00:00:05,VALID,1001.65,VALID,0,VALID,94.8422,VALID,0,VALID,23.3143,VALID,348,VALID,0.341797,
2009-02-23, 00:01:05,VALID,1001.62,VALID,0,VALID,94.7888,VALID,0,VALID,23.316,VALID,337,VALID,0.536719,
2009-02-23, 00:02:05,VALID,1001.64,VALID,0,VALID,94.7888,VALID,0,VALID,23.2948,VALID,340,VALID,0.242188,
2009-02-23, 00:03:05,VALID,1001.63,VALID,0,VALID,94.766,VALID,0,VALID,23.3143,VALID,340,VALID,0.180469,
2009-02-23, 00:04:05,VALID,1001.62,VALID,0,VALID,94.7202,VALID,0,VALID,23.316,VALID,340,VALID,0.0992187,
2009-02-23, 00:05:05,VALID,1001.63,VALID,0,VALID,94.7202,VALID,0,VALID,23.2754,VALID,340,VALID,0.0394531,
2009-02-23, 00:06:05,VALID,1001.64,VALID,0,VALID,94.7125,VALID,0,VALID,23.2948,VALID,340,VALID,0,
2009-02-23, 00:07:05,VALID,1001.6,VALID,0,VALID,94.7202,VALID,0,VALID,23.2948,VALID,340,VALID,0.153906,
2009-02-23, 00:08:05,VALID,1001.62,VALID,0,VALID,94.682,VALID,0,VALID,23.2966,VALID,340,VALID,0.252734,
2009-02-23, 00:09:05,VALID,1001.62,VALID,0,VALID,94.6591,VALID,0,VALID,23.2754,VALID,340,VALID,0.310156,
2009-02-23, 00:10:05,VALID,1001.6,VALID,0,VALID,94.621,VALID,0,VALID,23.2347,VALID,340,VALID,0,
2009-02-23, 00:11:05,VALID,1001.59,VALID,0,VALID,94.621,VALID,0,VALID,23.2364,VALID,340,VALID,0,
2009-02-23, 00:12:05,VALID,1001.56,VALID,0,VALID,94.6057,VALID,0,VALID,23.2382,VALID,340,VALID,0,
2009-02-23, 00:13:05,VALID,1001.53,VALID,0,VALID,94.5676,VALID,0,VALID,23.178,VALID,340,VALID,0,
2009-02-23, 00:14:05,VALID,1001.51,VALID,0,VALID,94.5829,VALID,0,VALID,23.1374,VALID,340,VALID,0,
2009-02-23, 00:15:05,VALID,1001.51,VALID,0,VALID,94.6439,VALID,0,VALID,23.1586,VALID,340,VALID,0.290625,
2009-02-23, 00:16:05,VALID,1001.5,VALID,0,VALID,94.7202,VALID,0,VALID,23.1975,VALID,340,VALID,0.336719,
2009-02-23, 00:17:05,VALID,1001.48,VALID,0,VALID,94.7278,VALID,0,VALID,23.1975,VALID,340,VALID,0.478125,
2009-02-23, 00:18:05,VALID,1001.46,VALID,0,VALID,94.7278,VALID,0,VALID,23.1975,VALID,340,VALID,0.419141,
2009-02-23, 00:19:05,VALID,1001.42,VALID,0,VALID,94.7125,VALID,0,VALID,23.2187,VALID,340,VALID,0.4,
2009-02-23, 00:20:05,VALID,1001.42,VALID,0,VALID,94.7049,VALID,0,VALID,23.1975,VALID,340,VALID,0.453516,
2009-02-23, 00:21:05,VALID,1001.41,VALID,0,VALID,94.6744,VALID,0,VALID,23.178,VALID,340,VALID,0.45,
2009-02-23, 00:22:05,VALID,1001.38,VALID,0,VALID,94.7125,VALID,0,VALID,23.1586,VALID,340,VALID,0.442187,
2009-02-23, 00:23:05,VALID,1001.37,VALID,0,VALID,94.7125,VALID,0,VALID,23.1798,VALID,340,VALID,0.469141,
2009-02-23, 00:24:05,VALID,1001.34,VALID,0,VALID,94.7125,VALID,0,VALID,23.1586,VALID,340,VALID,0.439063,
2009-02-23, 00:25:05,VALID,1001.3,VALID,0,VALID,94.7431,VALID,0,VALID,23.1586,VALID,340,VALID,0.463672,
2009-02-23, 00:26:05,VALID,1001.29,VALID,0,VALID,94.7125,VALID,0,VALID,23.1391,VALID,340,VALID,0.473828,
2009-02-23, 00:27:05,VALID,1001.3,VALID,0,VALID,94.6973,VALID,0,VALID,23.1391,VALID,340,VALID,0.392188,
2009-02-23, 00:28:05,VALID,1001.26,VALID,0,VALID,94.6973,VALID,0,VALID,23.1002,VALID,340,VALID,0.377344,
2009-02-23, 00:29:05,VALID,1001.24,VALID,0,VALID,94.7202,VALID,0,VALID,23.1002,VALID,340,VALID,0.401563,
2009-02-23, 00:30:05,VALID,1001.27,VALID,0,VALID,94.7202,VALID,0,VALID,23.0807,VALID,340,VALID,0.308984,
2009-02-23, 00:31:05,VALID,1001.24,VALID,0,VALID,94.7278,VALID,0,VALID,23.0613,VALID,340,VALID,0.401563,
2009-02-23, 00:32:05,VALID,1001.23,VALID,0,VALID,94.766,VALID,0,VALID,23.1019,VALID,340,VALID,0.430078,
2009-02-23, 00:33:05,VALID,1001.19,VALID,0,VALID,94.8194,VALID,0,VALID,23.1002,VALID,340,VALID,0.468359,
2009-02-23, 00:34:05,VALID,1001.19,VALID,0,VALID,94.8422,VALID,0,VALID,23.1002,VALID,340,VALID,0.35,
2009-02-23, 00:35:05,VALID,1001.17,VALID,0,VALID,94.8422,VALID,0,VALID,23.0984,VALID,340,VALID,0.407813,
2009-02-23, 00:36:05,VALID,1001.15,VALID,0,VALID,94.8346,VALID,0,VALID,23.1002,VALID,340,VALID,0.383984,
2009-02-23, 00:37:05,VALID,1001.16,VALID,0,VALID,94.827,VALID,0,VALID,23.079,VALID,340,VALID,0.428125,
2009-02-23, 00:38:05,VALID,1001.11,VALID,0,VALID,94.8117,VALID,0,VALID,23.1002,VALID,340,VALID,0.577734,
2009-02-23, 00:39:05,VALID,1001.11,VALID,0,VALID,94.8194,VALID,0,VALID,23.0807,VALID,340,VALID,0.471875,
2009-02-23, 00:40:05,VALID,1001.09,VALID,0,VALID,94.8194,VALID,0,VALID,23.0807,VALID,340,VALID,0.514844,
2009-02-23, 00:41:05,VALID,1001.07,VALID,0,VALID,94.8575,VALID,0.100563,VALID,23.0595,VALID,342,VALID,0.566406,
2009-02-23, 00:42:05,VALID,1001.07,VALID,0,VALID,94.8575,VALID,0,VALID,23.1002,VALID,342,VALID,0.614453,
2009-02-23, 00:43:05,VALID,1001.04,VALID,0,VALID,94.888,VALID,0.100563,VALID,23.0984,VALID,344,VALID,0.616797,
2009-02-23, 00:44:05,VALID,1001.05,VALID,0,VALID,94.8651,VALID,0.100563,VALID,23.0984,VALID,347,VALID,0.46875,
2009-02-23, 00:45:05,VALID,1001.03,VALID,0,VALID,94.9033,VALID,0.100563,VALID,23.0984,VALID,347,VALID,0.567578,
2009-02-23, 00:46:05,VALID,1001.02,VALID,0,VALID,94.8804,VALID,0.100563,VALID,23.079,VALID,347,VALID,0.520312,
2009-02-23, 00:47:05,VALID,1001.02,VALID,0,VALID,94.9338,VALID,0.100563,VALID,23.1179,VALID,347,VALID,0.671875,
2009-02-23, 00:48:05,VALID,1001.02,VALID,0,VALID,94.949,VALID,0.100563,VALID,23.1374,VALID,350,VALID,0.491016,
2009-02-23, 00:49:05,VALID,1001.04,VALID,0,VALID,94.9262,VALID,0.100563,VALID,23.0967,VALID,350,VALID,0.475781,
2009-02-23, 00:50:05,VALID,1001.03,VALID,0,VALID,94.9185,VALID,0.100563,VALID,23.0984,VALID,350,VALID,0.394922,
2009-02-23, 00:51:05,VALID,1001.02,VALID,0,VALID,94.8956,VALID,0.100563,VALID,23.0984,VALID,350,VALID,0.428906,
2009-02-23, 00:52:05,VALID,1000.99,VALID,0,VALID,94.8956,VALID,0.100563,VALID,23.0578,VALID,350,VALID,0.388672,
2009-02-23, 00:53:05,VALID,1000.98,VALID,0,VALID,94.9109,VALID,0.100563,VALID,23.079,VALID,350,VALID,0.383984,
2009-02-23, 00:54:05,VALID,1000.98,VALID,0,VALID,94.9643,VALID,0.100563,VALID,23.0984,VALID,350,VALID,0.36875,
2009-02-23, 00:55:05,VALID,1000.98,VALID,0,VALID,94.9185,VALID,0.100563,VALID,23.1179,VALID,350,VALID,0.367969,
2009-02-23, 00:56:05,VALID,1000.95,VALID,0,VALID,94.9414,VALID,0,VALID,23.1214,VALID,350,VALID,0.398047,
2009-02-23, 00:57:05,VALID,1000.97,VALID,0,VALID,94.949,VALID,0,VALID,23.1197,VALID,350,VALID,0.383984,
2009-02-23, 00:58:05,VALID,1000.97,VALID,0,VALID,94.9414,VALID,0,VALID,23.1197,VALID,350,VALID,0.366797,
2009-02-23, 00:59:05,VALID,1000.94,VALID,0,VALID,94.9109,VALID,0,VALID,23.1002,VALID,350,VALID,0.405859,
2009-02-23, 01:00:05,VALID,1000.95,VALID,0,VALID,94.9033,VALID,0,VALID,23.0807,VALID,350,VALID,0.407422,
2009-02-23, 01:01:05,VALID,1000.94,VALID,0,VALID,94.9033,VALID,0,VALID,23.079,VALID,350,VALID,0.375,
2009-02-23, 01:02:05,VALID,1000.95,VALID,0,VALID,94.8956,VALID,0,VALID,23.0807,VALID,350,VALID,0.352344,
2009-02-23, 01:03:05,VALID,1000.91,VALID,0,VALID,94.9109,VALID,0,VALID,23.0807,VALID,350,VALID,0.250391,
2009-02-23, 01:04:05,VALID,1000.89,VALID,0,VALID,94.9262,VALID,0,VALID,23.1019,VALID,350,VALID,0.249609,
2009-02-23, 01:05:05,VALID,1000.88,VALID,0,VALID,94.9338,VALID,0,VALID,23.0807,VALID,350,VALID,0.245312,
2009-02-23, 01:06:05,VALID,1000.87,VALID,0,VALID,94.9414,VALID,0,VALID,23.0807,VALID,350,VALID,0.176953,
2009-02-23, 01:07:05,VALID,1000.85,VALID,0,VALID,94.9872,VALID,0,VALID,23.079,VALID,350,VALID,0.248828,
2009-02-23, 01:08:05,VALID,1000.85,VALID,0,VALID,95.0177,VALID,0,VALID,23.1197,VALID,350,VALID,0.199609,
2009-02-23, 01:09:05,VALID,1000.85,VALID,0,VALID,94.9948,VALID,0,VALID,23.1391,VALID,350,VALID,0.280469,
2009-02-23, 01:10:05,VALID,1000.83,VALID,0,VALID,94.9796,VALID,0,VALID,23.1391,VALID,350,VALID,0.4875,
2009-02-23, 01:11:05,VALID,1000.82,VALID,0,VALID,95.0024,VALID,0,VALID,23.1374,VALID,350,VALID,0.421875,
2009-02-23, 01:12:05,VALID,1000.82,VALID,0,VALID,94.9719,VALID,0,VALID,23.1179,VALID,350,VALID,0.415625,
2009-02-23, 01:13:05,VALID,1000.85,VALID,0,VALID,94.9643,VALID,0,VALID,23.1391,VALID,350,VALID,0.445703,
2009-02-23, 01:14:05,VALID,1000.82,VALID,0,VALID,94.9719,VALID,0,VALID,23.1391,VALID,350,VALID,0.504297,
2009-02-23, 01:15:05,VALID,1000.87,VALID,0,VALID,94.9719,VALID,0,VALID,23.1391,VALID,350,VALID,0.545703,
2009-02-23, 01:16:05,VALID,1000.86,VALID,0,VALID,94.9872,VALID,0,VALID,23.1391,VALID,350,VALID,0.542188,
2009-02-23, 01:17:05,VALID,1000.87,VALID,0,VALID,94.9719,VALID,0,VALID,23.1391,VALID,352,VALID,0.460938,
2009-02-23, 01:18:05,VALID,1000.88,VALID,0,VALID,95.0787,VALID,0,VALID,23.2187,VALID,352,VALID,0.457031,
2009-02-23, 01:19:05,VALID,1000.89,VALID,0,VALID,95.0787,VALID,0,VALID,23.217,VALID,355,VALID,0.463281,
2009-02-23, 01:20:05,VALID,1000.91,VALID,0,VALID,95.0711,VALID,0,VALID,23.2577,VALID,355,VALID,0.146484,
2009-02-23, 01:21:05,VALID,1000.91,VALID,0,VALID,95.0635,VALID,0,VALID,23.2541,VALID,355,VALID,0.412891,
2009-02-23, 01:22:05,VALID,1000.87,VALID,0,VALID,95.0635,VALID,0,VALID,23.2948,VALID,355,VALID,0,
2009-02-23, 01:23:05,VALID,1000.85,VALID,0,VALID,95.033,VALID,0,VALID,23.3143,VALID,344,VALID,0.391406,
2009-02-23, 01:24:05,VALID,1000.84,VALID,0,VALID,95.0864,VALID,0,VALID,23.3532,VALID,335,VALID,0.261719,
2009-02-23, 01:25:05,VALID,1000.83,VALID,0,VALID,95.0787,VALID,0,VALID,23.3727,VALID,331,VALID,0.312891,
2009-02-23, 01:26:05,VALID,1000.81,VALID,0,VALID,95.0711,VALID,0,VALID,23.4328,VALID,353,VALID,0.541797,
2009-02-23, 01:27:05,VALID,1000.81,VALID,0,VALID,95.0711,VALID,0,VALID,23.47,VALID,345,VALID,0.34375,
2009-02-23, 01:28:05,VALID,1000.8,VALID,0,VALID,95.0177,VALID,0,VALID,23.4894,VALID,345,VALID,0.444922,
2009-02-23, 01:29:05,VALID,1000.81,VALID,0,VALID,95.0024,VALID,0,VALID,23.5284,VALID,330,VALID,0.708594,
2009-02-23, 01:30:05,VALID,1000.83,VALID,0,VALID,94.9796,VALID,0,VALID,23.5673,VALID,8,VALID,0.633203,
2009-02-23, 01:31:05,VALID,1000.8,VALID,0,VALID,94.9414,VALID,0,VALID,23.6062,VALID,340,VALID,0.704297,
2009-02-23, 01:32:05,VALID,1000.83,VALID,0,VALID,94.8651,VALID,0,VALID,23.6646,VALID,356,VALID,0.732031,
2009-02-23, 01:33:05,VALID,1000.83,VALID,0,VALID,94.7888,VALID,0,VALID,23.7035,VALID,357,VALID,0.135547,
2009-02-23, 01:34:05,VALID,1000.79,VALID,0,VALID,94.6897,VALID,0,VALID,23.6841,VALID,349,VALID,0.909375,
2009-02-23, 01:35:05,VALID,1000.78,VALID,0,VALID,94.6286,VALID,0,VALID,23.723,VALID,346,VALID,0.202344,
2009-02-23, 01:36:05,VALID,1000.8,VALID,0,VALID,94.5371,VALID,0,VALID,23.7017,VALID,346,VALID,0.000390625,
2009-02-23, 01:37:05,VALID,1000.79,VALID,0,VALID,94.4684,VALID,0,VALID,23.7425,VALID,344,VALID,0.374609,
2009-02-23, 01:38:05,VALID,1000.78,VALID,0,VALID,94.4379,VALID,0,VALID,23.7425,VALID,350,VALID,0.914063,
2009-02-23, 01:39:05,VALID,1000.77,VALID,0,VALID,94.415,VALID,0,VALID,23.7601,VALID,350,VALID,0.851563,
2009-02-23, 01:40:05,VALID,1000.76,VALID,0,VALID,94.354,VALID,0,VALID,23.7991,VALID,346,VALID,0.475391,
2009-02-23, 01:41:05,VALID,1000.75,VALID,0,VALID,94.2777,VALID,0,VALID,23.8398,VALID,6,VALID,0.419531,
2009-02-23, 01:42:05,VALID,1000.73,VALID,0,VALID,94.2014,VALID,0,VALID,23.8398,VALID,360,VALID,0.687891,
2009-02-23, 01:43:05,VALID,1000.73,VALID,0,VALID,94.1251,VALID,0,VALID,23.8398,VALID,355,VALID,0.544922,
2009-02-23, 01:44:05,VALID,1000.71,VALID,0,VALID,94.0717,VALID,0,VALID,23.8593,VALID,348,VALID,0.146094,
2009-02-23, 01:45:04,VALID,1000.68,VALID,0,VALID,94.0031,VALID,0,VALID,23.8805,VALID,355,VALID,0.847266,
2009-02-23, 01:46:04,VALID,1000.68,VALID,0,VALID,93.9497,VALID,0,VALID,23.8805,VALID,351,VALID,0.591797,
2009-02-23, 01:47:04,VALID,1000.7,VALID,0,VALID,93.8886,VALID,0,VALID,23.8787,VALID,352,VALID,0.408984,
2009-02-23, 01:48:04,VALID,1000.68,VALID,0,VALID,93.82,VALID,0,VALID,23.8787,VALID,347,VALID,0.628125,
2009-02-23, 01:49:04,VALID,1000.69,VALID,0,VALID,93.7361,VALID,0,VALID,23.9,VALID,338,VALID,0.733594,
2009-02-23, 01:50:04,VALID,1000.69,VALID,0,VALID,93.6369,VALID,0,VALID,23.8769,VALID,1,VALID,0.633203,
2009-02-23, 01:51:04,VALID,1000.68,VALID,0,VALID,93.5072,VALID,0,VALID,23.8982,VALID,345,VALID,0.871484,
2009-02-23, 01:52:04,VALID,1000.69,VALID,0,VALID,93.408,VALID,0,VALID,23.9177,VALID,325,VALID,0.773438,
2009-02-23, 01:53:04,VALID,1000.67,VALID,0,VALID,93.3317,VALID,0,VALID,23.8982,VALID,354,VALID,0.532422,
2009-02-23, 01:54:04,VALID,1000.67,VALID,0,VALID,93.2936,VALID,0,VALID,23.8769,VALID,353,VALID,0.0894531,
2009-02-23, 01:55:04,VALID,1000.69,VALID,0,VALID,93.2402,VALID,0,VALID,23.8982,VALID,9,VALID,0.184766,
2009-02-23, 01:56:04,VALID,1000.67,VALID,0,VALID,93.1944,VALID,0,VALID,23.8982,VALID,340,VALID,0.381641,
2009-02-23, 01:57:04,VALID,1000.72,VALID,0,VALID,93.1944,VALID,0,VALID,23.8982,VALID,350,VALID,0.610156,
2009-02-23, 01:58:04,VALID,1000.71,VALID,0,VALID,93.1944,VALID,0,VALID,23.8575,VALID,351,VALID,0.811328,
2009-02-23, 01:59:04,VALID,1000.71,VALID,0,VALID,93.1639,VALID,0,VALID,23.8982,VALID,336,VALID,0.306641,
2009-02-23, 02:00:04,VALID,1000.7,VALID,0,VALID,93.1486,VALID,0,VALID,23.8982,VALID,342,VALID,0.58125,
2009-02-23, 02:01:04,VALID,1000.68,VALID,0,VALID,93.1334,VALID,0,VALID,23.8964,VALID,336,VALID,0.552734,
2009-02-23, 02:02:04,VALID,1000.68,VALID,0,VALID,93.1029,VALID,0,VALID,23.8964,VALID,353,VALID,0.375781,
2009-02-23, 02:03:04,VALID,1000.67,VALID,0,VALID,93.0876,VALID,0,VALID,23.9159,VALID,344,VALID,0.645703,
2009-02-23, 02:04:04,VALID,1000.68,VALID,0,VALID,93.0418,VALID,0,VALID,23.9371,VALID,347,VALID,0.723437,
2009-02-23, 02:05:04,VALID,1000.67,VALID,0,VALID,93.0647,VALID,0,VALID,23.9566,VALID,352,VALID,0.665625,
2009-02-23, 02:06:04,VALID,1000.67,VALID,0,VALID,93.0342,VALID,0.100563,VALID,23.9548,VALID,15,VALID,0.307813,
2009-02-23, 02:07:04,VALID,1000.68,VALID,0,VALID,92.9884,VALID,0,VALID,23.9761,VALID,343,VALID,0.269531,
2009-02-23, 02:08:04,VALID,1000.66,VALID,0,VALID,92.9655,VALID,0,VALID,23.9761,VALID,343,VALID,0.324609,
2009-02-23, 02:09:04,VALID,1000.65,VALID,0,VALID,92.9426,VALID,0,VALID,23.9566,VALID,343,VALID,0.144141,
2009-02-23, 02:10:04,VALID,1000.64,VALID,0,VALID,92.9579,VALID,0,VALID,23.9761,VALID,317,VALID,0.164844,
2009-02-23, 02:11:04,VALID,1000.64,VALID,0,VALID,92.9884,VALID,0,VALID,23.9761,VALID,339,VALID,0.654297,
2009-02-23, 02:12:04,VALID,1000.64,VALID,0,VALID,92.9808,VALID,0,VALID,23.9742,VALID,316,VALID,0.744922,
2009-02-23, 02:13:04,VALID,1000.58,VALID,0,VALID,92.9426,VALID,0,VALID,24.015,VALID,275,VALID,0.441016,
2009-02-23, 02:14:04,VALID,1000.59,VALID,0,VALID,92.874,VALID,0.100563,VALID,24.015,VALID,359,VALID,0.251563,
2009-02-23, 02:15:04,VALID,1000.6,VALID,0,VALID,92.7977,VALID,0,VALID,23.9955,VALID,339,VALID,0.840625,
2009-02-23, 02:16:04,VALID,1000.57,VALID,0,VALID,92.7824,VALID,0.100563,VALID,24.015,VALID,5,VALID,0.457031,
2009-02-23, 02:17:04,VALID,1000.57,VALID,0,VALID,92.7367,VALID,0,VALID,24.015,VALID,345,VALID,0.546875,
2009-02-23, 02:18:04,VALID,1000.56,VALID,0,VALID,92.7062,VALID,0,VALID,23.9937,VALID,303,VALID,0.662891,
2009-02-23, 02:19:04,VALID,1000.54,VALID,0,VALID,92.6833,VALID,0,VALID,23.9937,VALID,352,VALID,0.523047,
2009-02-23, 02:20:04,VALID,1000.52,VALID,0,VALID,92.6222,VALID,0,VALID,24.0345,VALID,339,VALID,0.176172,
2009-02-23, 02:21:04,VALID,1000.49,VALID,0,VALID,92.5841,VALID,0,VALID,23.9937,VALID,354,VALID,0.682813,
2009-02-23, 02:22:04,VALID,1000.44,VALID,0,VALID,92.5917,VALID,0,VALID,24.015,VALID,343,VALID,0.467969,
2009-02-23, 02:23:04,VALID,1000.44,VALID,0,VALID,92.5765,VALID,0,VALID,24.015,VALID,328,VALID,0.847656,
2009-02-23, 02:24:04,VALID,1000.39,VALID,0,VALID,92.5383,VALID,0,VALID,24.015,VALID,339,VALID,0.723437,
2009-02-23, 02:25:04,VALID,1000.39,VALID,0,VALID,92.4925,VALID,0,VALID,24.0557,VALID,326,VALID,0.355078,
2009-02-23, 02:26:04,VALID,1000.39,VALID,0,VALID,92.462,VALID,0.100563,VALID,24.0539,VALID,12,VALID,0.351563,
2009-02-23, 02:27:04,VALID,1000.36,VALID,0,VALID,92.4468,VALID,0.100563,VALID,24.0326,VALID,324,VALID,0.520312,
2009-02-23, 02:28:04,VALID,1000.37,VALID,0,VALID,92.4163,VALID,0.201126,VALID,24.0521,VALID,351,VALID,0.628906,
2009-02-23, 02:29:04,VALID,1000.34,VALID,0,VALID,92.4315,VALID,0.100563,VALID,24.0521,VALID,316,VALID,0.838672,
2009-02-23, 02:30:04,VALID,1000.34,VALID,0,VALID,92.3705,VALID,0.100563,VALID,24.0503,VALID,34,VALID,0.380859,
2009-02-23, 02:31:04,VALID,1000.31,VALID,0,VALID,92.3171,VALID,0.100563,VALID,24.0503,VALID,340,VALID,0.466406,
2009-02-23, 02:32:04,VALID,1000.31,VALID,0,VALID,92.2866,VALID,0.100563,VALID,24.0716,VALID,347,VALID,0.639844,
2009-02-23, 02:33:04,VALID,1000.27,VALID,0,VALID,92.2866,VALID,0.100563,VALID,24.1105,VALID,345,VALID,0.189063,
2009-02-23, 02:34:04,VALID,1000.26,VALID,0,VALID,92.2103,VALID,0.100563,VALID,24.091,VALID,343,VALID,0.330078,
2009-02-23, 02:35:04,VALID,1000.23,VALID,0,VALID,92.1798,VALID,0.100563,VALID,24.1105,VALID,343,VALID,0.114063,
2009-02-23, 02:36:04,VALID,1000.23,VALID,0,VALID,92.1874,VALID,0.100563,VALID,24.0716,VALID,334,VALID,0.107422,
2009-02-23, 02:37:04,VALID,1000.21,VALID,0,VALID,92.1569,VALID,0.100563,VALID,24.0716,VALID,330,VALID,0.0132813,
2009-02-23, 02:38:04,VALID,1000.18,VALID,0,VALID,92.2866,VALID,0.100563,VALID,24.091,VALID,304,VALID,0.227734,
2009-02-23, 02:39:04,VALID,1000.2,VALID,0,VALID,92.3705,VALID,0.100563,VALID,24.091,VALID,319,VALID,0.512109,
2009-02-23, 02:40:04,VALID,1000.19,VALID,0,VALID,92.2942,VALID,0.100563,VALID,24.1087,VALID,342,VALID,0.732031,
2009-02-23, 02:41:04,VALID,1000.2,VALID,0,VALID,92.2103,VALID,0,VALID,24.1531,VALID,334,VALID,0.406641,
2009-02-23, 02:42:04,VALID,1000.2,VALID,0,VALID,92.195,VALID,0,VALID,24.1513,VALID,303,VALID,0.346875,
2009-02-23, 02:43:04,VALID,1000.2,VALID,0,VALID,92.0958,VALID,0,VALID,24.1707,VALID,360,VALID,0.207813,
2009-02-23, 02:44:04,VALID,1000.18,VALID,0,VALID,92.0501,VALID,0,VALID,24.1707,VALID,357,VALID,0.592188,
2009-02-23, 02:45:04,VALID,1000.19,VALID,0,VALID,91.9585,VALID,0,VALID,24.1902,VALID,275,VALID,0.573438,
2009-02-23, 02:46:04,VALID,1000.17,VALID,0,VALID,91.9051,VALID,0,VALID,24.1902,VALID,344,VALID,0.600781,
2009-02-23, 02:47:04,VALID,1000.18,VALID,0,VALID,91.867,VALID,0.100563,VALID,24.1902,VALID,334,VALID,0.342969,
2009-02-23, 02:48:04,VALID,1000.18,VALID,0,VALID,91.8517,VALID,0,VALID,24.1689,VALID,334,VALID,0.516797,
2009-02-23, 02:49:04,VALID,1000.18,VALID,0,VALID,91.867,VALID,0,VALID,24.1902,VALID,331,VALID,0.140625,
2009-02-23, 02:50:04,VALID,1000.16,VALID,0,VALID,91.867,VALID,0,VALID,24.1689,VALID,334,VALID,0.0828125,
2009-02-23, 02:51:04,VALID,1000.2,VALID,0,VALID,91.8212,VALID,0,VALID,24.1707,VALID,334,VALID,0,
2009-02-23, 02:52:04,VALID,1000.18,VALID,0,VALID,91.8212,VALID,0,VALID,24.1513,VALID,332,VALID,0.176953,
2009-02-23, 02:53:04,VALID,1000.17,VALID,0,VALID,91.8822,VALID,0,VALID,24.13,VALID,333,VALID,0.373828,
2009-02-23, 02:54:04,VALID,1000.19,VALID,0,VALID,91.8746,VALID,0,VALID,24.1318,VALID,340,VALID,0.217187,
2009-02-23, 02:55:04,VALID,1000.2,VALID,0,VALID,91.9051,VALID,0,VALID,24.1123,VALID,338,VALID,0.176953,
2009-02-23, 02:56:04,VALID,1000.21,VALID,0,VALID,91.989,VALID,0,VALID,24.1123,VALID,347,VALID,0.582422,
2009-02-23, 02:57:04,VALID,1000.22,VALID,0,VALID,92.0348,VALID,0,VALID,24.1336,VALID,1,VALID,0.361328,
2009-02-23, 02:58:04,VALID,1000.26,VALID,0,VALID,92.0424,VALID,0,VALID,24.1531,VALID,1,VALID,0.30625,
2009-02-23, 02:59:04,VALID,1000.29,VALID,0,VALID,92.1035,VALID,0,VALID,24.1318,VALID,338,VALID,0.694531,
2009-02-23, 03:00:04,VALID,1000.26,VALID,0,VALID,92.0196,VALID,0,VALID,24.1726,VALID,295,VALID,0.46875,
2009-02-23, 03:01:04,VALID,1000.3,VALID,0,VALID,91.9433,VALID,0,VALID,24.1105,VALID,300,VALID,0.246094,
2009-02-23, 03:02:04,VALID,1000.29,VALID,0,VALID,91.9433,VALID,0,VALID,24.1531,VALID,351,VALID,0.362891,
2009-02-23, 03:03:04,VALID,1000.29,VALID,0,VALID,91.9509,VALID,0,VALID,24.1513,VALID,337,VALID,0.417578,
2009-02-23, 03:04:04,VALID,1000.32,VALID,0,VALID,91.9433,VALID,0,VALID,24.1318,VALID,337,VALID,0.335547,
2009-02-23, 03:05:04,VALID,1000.3,VALID,0,VALID,92.0196,VALID,0,VALID,24.1318,VALID,351,VALID,1.03359,
2009-02-23, 03:06:04,VALID,1000.3,VALID,0,VALID,92.0119,VALID,0,VALID,24.1513,VALID,344,VALID,0.326172,
2009-02-23, 03:07:04,VALID,1000.3,VALID,0,VALID,91.9509,VALID,0,VALID,24.1707,VALID,353,VALID,0.385938,
2009-02-23, 03:08:04,VALID,1000.26,VALID,0,VALID,91.9967,VALID,0,VALID,24.1902,VALID,327,VALID,0.429688,
2009-02-23, 03:09:04,VALID,1000.3,VALID,0,VALID,91.9585,VALID,0,VALID,24.2097,VALID,334,VALID,0.659766,
2009-02-23, 03:10:04,VALID,1000.29,VALID,0,VALID,91.9356,VALID,0,VALID,24.2097,VALID,336,VALID,0.371484,
2009-02-23, 03:11:04,VALID,1000.24,VALID,0,VALID,91.867,VALID,0,VALID,24.1884,VALID,3,VALID,0.326562,
2009-02-23, 03:12:04,VALID,1000.26,VALID,0,VALID,91.928,VALID,0,VALID,24.2097,VALID,342,VALID,0.616016,
2009-02-23, 03:13:04,VALID,1000.23,VALID,0,VALID,91.8975,VALID,0,VALID,24.2486,VALID,347,VALID,1.11289,
2009-02-23, 03:14:04,VALID,1000.23,VALID,0,VALID,91.7907,VALID,0,VALID,24.2681,VALID,283,VALID,0.612109,
2009-02-23, 03:15:04,VALID,1000.22,VALID,0,VALID,91.6839,VALID,0,VALID,24.2681,VALID,334,VALID,0.521484,
2009-02-23, 03:16:04,VALID,1000.23,VALID,0,VALID,91.6686,VALID,0,VALID,24.2681,VALID,351,VALID,0.739453,
2009-02-23, 03:17:04,VALID,1000.22,VALID,0,VALID,91.6457,VALID,0,VALID,24.2681,VALID,350,VALID,0.201562,
2009-02-23, 03:18:04,VALID,1000.21,VALID,0,VALID,91.6915,VALID,0,VALID,24.2875,VALID,347,VALID,1.15937,
2009-02-23, 03:19:04,VALID,1000.2,VALID,0,VALID,91.6915,VALID,0,VALID,24.2875,VALID,342,VALID,0.996094,
2009-02-23, 03:20:04,VALID,1000.21,VALID,0,VALID,91.6534,VALID,0,VALID,24.307,VALID,323,VALID,0.357031,
2009-02-23, 03:21:04,VALID,1000.22,VALID,0,VALID,91.6152,VALID,0,VALID,24.3265,VALID,344,VALID,0.756641,
2009-02-23, 03:22:04,VALID,1000.23,VALID,0,VALID,91.5847,VALID,0,VALID,24.3265,VALID,308,VALID,0.424609,
2009-02-23, 03:23:04,VALID,1000.22,VALID,0,VALID,91.5466,VALID,0,VALID,24.3283,VALID,275,VALID,0.499609,
2009-02-23, 03:24:04,VALID,1000.22,VALID,0,VALID,91.5923,VALID,0,VALID,24.3265,VALID,352,VALID,0.867188,
2009-02-23, 03:25:04,VALID,1000.23,VALID,0,VALID,91.6,VALID,0,VALID,24.3265,VALID,317,VALID,0.409375,
2009-02-23, 03:26:04,VALID,1000.2,VALID,0,VALID,91.6,VALID,0,VALID,24.3052,VALID,334,VALID,0.447266,
2009-02-23, 03:27:04,VALID,1000.22,VALID,0,VALID,91.5923,VALID,0,VALID,24.3478,VALID,354,VALID,0.553516,
2009-02-23, 03:28:04,VALID,1000.24,VALID,0,VALID,91.6152,VALID,0,VALID,24.3265,VALID,330,VALID,0.497656,
2009-02-23, 03:29:04,VALID,1000.23,VALID,0,VALID,91.6152,VALID,0,VALID,24.3246,VALID,357,VALID,0.603906,
2009-02-23, 03:30:04,VALID,1000.23,VALID,0,VALID,91.6686,VALID,0,VALID,24.3867,VALID,352,VALID,0.790625,
2009-02-23, 03:31:04,VALID,1000.28,VALID,0,VALID,91.5466,VALID,0,VALID,24.4062,VALID,309,VALID,0.200781,
2009-02-23, 03:32:04,VALID,1000.27,VALID,0,VALID,91.4626,VALID,0,VALID,24.3654,VALID,310,VALID,0.125,
2009-02-23, 03:33:04,VALID,1000.28,VALID,0,VALID,91.3864,VALID,0,VALID,24.3654,VALID,312,VALID,0.00703125,
2009-02-23, 03:34:04,VALID,1000.3,VALID,0,VALID,91.4932,VALID,0,VALID,24.3654,VALID,337,VALID,1.0332,
2009-02-23, 03:35:04,VALID,1000.31,VALID,0,VALID,91.4474,VALID,0,VALID,24.3849,VALID,332,VALID,0.287109,
2009-02-23, 03:36:04,VALID,1000.34,VALID,0,VALID,91.3482,VALID,0,VALID,24.4257,VALID,331,VALID,0.415625,
2009-02-23, 03:37:04,VALID,1000.34,VALID,0,VALID,91.333,VALID,0,VALID,24.4043,VALID,359,VALID,0.357422,
2009-02-23, 03:38:04,VALID,1000.34,VALID,0,VALID,91.2872,VALID,0,VALID,24.4043,VALID,298,VALID,0.264844,
2009-02-23, 03:39:04,VALID,1000.33,VALID,0,VALID,91.2185,VALID,0,VALID,24.4043,VALID,298,VALID,0.138672,
2009-02-23, 03:40:04,VALID,1000.31,VALID,0,VALID,91.2338,VALID,0,VALID,24.4257,VALID,299,VALID,0.171484,
2009-02-23, 03:41:04,VALID,1000.34,VALID,0,VALID,91.2948,VALID,0.100563,VALID,24.4025,VALID,280,VALID,0.441406,
2009-02-23, 03:42:04,VALID,1000.32,VALID,0,VALID,91.2262,VALID,0.100563,VALID,24.4043,VALID,280,VALID,0.158203,